| time (UTC) | temp C | wind direction | speed KPH | gust KPH | rain 1hr cm | rain 24hr cm | rain mn cm | humidity % | barometer mb |
| 20260504190032 | 28 | 84 | 0.0 | 11.3 | 0.00 | 0.00 | 0.00 | 61 | 1012.3 |
| 20260504184533 | 28 | 86 | 1.6 | 9.7 | 0.00 | 0.00 | 0.00 | 62 | 1012.6 |
| 20260504183023 | 28 | 187 | 3.2 | 11.3 | 0.00 | 0.00 | 0.00 | 60 | 1012.7 |
| 20260504181521 | 28 | 11 | 1.6 | 14.5 | 0.00 | 0.00 | 0.00 | 61 | 1012.7 |
| 20260504180021 | 27 | 84 | 4.8 | 14.5 | 0.00 | 0.00 | 0.00 | 60 | 1012.9 |
| 20260504174516 | 27 | 349 | 1.6 | 11.3 | 0.00 | 0.00 | 0.00 | 63 | 1013.2 |
| 20260504173020 | 27 | 220 | 4.8 | 14.5 | 0.00 | 0.00 | 0.00 | 60 | 1013.2 |
| 20260504171513 | 27 | 98 | 1.6 | 9.7 | 0.00 | 0.00 | 0.00 | 64 | 1013.7 |
| 20260504081518 | 13 | 212 | 0.0 | 0.0 | 0.00 | 0.00 | 0.00 | 90 | 1015.0 |
| 20260504050120 | 15 | 212 | 0.0 | 0.0 | 0.00 | 0.00 | 0.00 | 80 | 1017.3 |
| 20260504044550 | 16 | 212 | 0.0 | 0.0 | 0.00 | 0.00 | 0.00 | 78 | 1017.3 |
| 20260504043058 | 16 | 212 | 0.0 | 0.0 | 0.00 | 0.00 | 0.00 | 77 | 1017.4 |
| 20260504041550 | 17 | 212 | 0.0 | 0.0 | 0.00 | 0.00 | 0.00 | 75 | 1017.6 |
| 20260504040053 | 17 | 253 | 0.0 | 1.6 | 0.00 | 0.00 | 0.00 | 73 | 1017.4 |
| 20260504034552 | 17 | 124 | 0.0 | 0.0 | 0.00 | 0.00 | 0.00 | 73 | 1017.3 |
| 20260504033049 | 18 | 249 | 0.0 | 0.0 | 0.00 | 0.00 | 0.00 | 71 | 1017.5 |
| 20260504031610 | 18 | 153 | 0.0 | 0.0 | 0.00 | 0.00 | 0.00 | 70 | 1017.3 |
| 20260504030048 | 18 | 304 | 0.0 | 3.2 | 0.00 | 0.00 | 0.00 | 68 | 1017.2 |
| 20260504024548 | 18 | 239 | 0.0 | 3.2 | 0.00 | 0.00 | 0.00 | 67 | 1017.2 |
| 20260504023049 | 19 | 231 | 0.0 | 6.4 | 0.00 | 0.00 | 0.00 | 66 | 1017.1 |
| 20260504021552 | 19 | 39 | 0.0 | 1.6 | 0.00 | 0.00 | 0.00 | 65 | 1017.0 |
| 20260504020048 | 20 | 222 | 0.0 | 8.0 | 0.00 | 0.00 | 0.00 | 63 | 1017.0 |
| 20260504014548 | 20 | 137 | 0.0 | 8.0 | 0.00 | 0.00 | 0.00 | 62 | 1016.8 |
| 20260504013054 | 20 | 140 | 1.6 | 4.8 | 0.00 | 0.00 | 0.00 | 61 | 1016.7 |
| 20260504011550 | 21 | 129 | 0.0 | 3.2 | 0.00 | 0.00 | 0.00 | 59 | 1016.8 |
| 20260504010047 | 21 | 129 | 0.0 | 3.2 | 0.00 | 0.00 | 0.00 | 57 | 1016.7 |
| 20260504004547 | 22 | 139 | 0.0 | 3.2 | 0.00 | 0.00 | 0.00 | 56 | 1016.6 |
| 20260504003048 | 22 | 103 | 0.0 | 4.8 | 0.00 | 0.00 | 0.00 | 54 | 1016.7 |
| 20260504001604 | 23 | 89 | 0.0 | 8.0 | 0.00 | 0.00 | 0.00 | 52 | 1016.7 |
| 20260504000045 | 24 | 243 | 1.6 | 8.0 | 0.00 | 0.00 | 0.00 | 50 | 1016.6 |
| 20260503234544 | 25 | 149 | 0.0 | 11.3 | 0.00 | 0.00 | 0.00 | 47 | 1016.7 |
| 20260503233043 | 26 | 153 | 4.8 | 12.9 | 0.00 | 0.00 | 0.00 | 46 | 1016.6 |
| 20260503231548 | 26 | 162 | 1.6 | 11.3 | 0.00 | 0.00 | 0.00 | 46 | 1016.9 |
| 20260503230041 | 27 | 134 | 1.6 | 6.4 | 0.00 | 0.00 | 0.00 | 42 | 1016.9 |
| 20260503224539 | 27 | 128 | 0.0 | 4.8 | 0.00 | 0.00 | 0.00 | 41 | 1017.0 |
| 20260503223042 | 27 | 351 | 3.2 | 8.0 | 0.00 | 0.00 | 0.00 | 41 | 1017.1 |
| 20260503221536 | 27 | 216 | 0.0 | 6.4 | 0.00 | 0.00 | 0.00 | 36 | 1017.5 |
| 20260503220038 | 28 | 213 | 3.2 | 8.0 | 0.00 | 0.00 | 0.00 | 35 | 1017.5 |
| 20260503214542 | 28 | 301 | 0.0 | 3.2 | 0.00 | 0.00 | 0.00 | 38 | 1017.5 |
| 20260503213050 | 27 | 155 | 0.0 | 12.9 | 0.00 | 0.00 | 0.00 | 39 | 1018.0 |
| 20260503211538 | 28 | 34 | 0.0 | 9.7 | 0.00 | 0.00 | 0.00 | 37 | 1018.0 |
| 20260503210030 | 27 | 236 | 3.2 | 9.7 | 0.00 | 0.00 | 0.00 | 38 | 1018.3 |
| 20260503204544 | 28 | 207 | 3.2 | 11.3 | 0.00 | 0.00 | 0.00 | 38 | 1018.3 |
| 20260503203027 | 28 | 144 | 0.0 | 11.3 | 0.00 | 0.00 | 0.00 | 40 | 1018.6 |
| 20260503201526 | 28 | 341 | 3.2 | 11.3 | 0.00 | 0.00 | 0.00 | 39 | 1018.8 |
| 20260503200023 | 28 | 248 | 0.0 | 9.7 | 0.00 | 0.00 | 0.00 | 41 | 1019.2 |
| 20260503194525 | 28 | 105 | 0.0 | 6.4 | 0.00 | 0.00 | 0.00 | 42 | 1019.4 |
| 20260503193020 | 28 | 86 | 3.2 | 8.0 | 0.00 | 0.00 | 0.00 | 43 | 1019.5 |
| 20260503191518 | 27 | 139 | 0.0 | 9.7 | 0.00 | 0.00 | 0.00 | 40 | 1019.8 |